Location: Unspecified
(0.0000°N, 0.0000°E)
Time: 03:10:15
(UTC+00:00)

Galileo 5 - Visible Passes

Search period start: 10 December 2022 00:00
Search period end: 20 December 2022 00:00
Orbit: 17080 x 26118 km, 50.2° (Epoch: 08 December)

Date Brightness Start Highest point End Pass type
(mag) Time Alt. Az. Time Alt. Az. Time Alt. Az.
10 Dec ? 01:02:14 10° NNW 03:28:35 74° ENE 06:52:32 10° SE visible
11 Dec ? 03:34:56 10° NW 05:38:20 69° WSW 14:51:58 10° NE visible
13 Dec ? 10:54:07 10° SW 16:41:25 80° W 20:06:30 10° NE visible
14 Dec ? 14:41:24 10° SW 18:27:34 45° W 00:34:04 10° ESE visible
15 Dec ? 18:44:34 10° WSW 19:57:40 12° W 04:16:09 10° SE visible
17 Dec ? 01:27:51 10° NNW 03:44:26 86° ENE 07:44:53 10° SE visible
18 Dec ? 03:57:46 10° NW 05:55:43 57° WSW 15:21:59 10° NE visible
